Showing default

FLOCK 4Q 33, 58308

Orbit data source: Space-Track

FLOCK 4Q 33, 58308 is a payload satellite owned by Planet (US) in SSO that was launched on Sat, 11 Nov 2023 UTC via an FALCON 9 launch vehicle from the Air Force Western Test Range (AFWTR). Payload-class satellites include a variety of spacecraft equipped with specific instruments for various scientific and technological missions. These include communications satellites like Starlink; space stations such as the ISS; scientific satellites like the Hubble; Earth observation satellites from companies like Planet Labs, Umbra, and HawkEye 360; GPS; miniature CubeSats for education and research; and military/defense satellites.

Loading next visibility...
Identifier
58308, 2023-174BE
Orbit
SSO
Country
Flag of USUS
Related business
Manufacturer
Planet
Mission
Operational Commercial Imaging
Bus & Motor
CUBESAT 3U, Unknown motor
Mass
5.7 kg wet, 5.7 kg dry
Launch date (UTC)
2023-11-11 (2 years ago)
Launch vehicle
FALCON 9
Launch site
Air Force Western Test Range (AFWTR)
Object type
Payload
Rocket body
Debris
Shape & HBR
Box + 2 Pan, 1.0 m
Radar Cross Section
0.072 m², Medium (>0.1 m² and < 1m²)

Expand to show TLE details & history
Last TLE update: 1 day ago

TLE from 1 day ago
0 FLOCK 4Q 33
1 58308U 23174BE  25347.75343895  .00027519  00000-0  58147-3 0  9998
2 58308  97.4002  69.6873 0007709  88.7727 271.4404 15.45113434117089
Epoch: 2025-12-13T18:04Z
TLE epoch observation values (Epoch: 2025-12-13T18:04:57.125Z)
Latitude
-0.0001°
Longitude
75.77311°
Altitude
434.041 km
Speed
7.651 km/s
True Right ascension
04h 38m 44s
True Declination
0° 00' 00"
Sunlit
Object was in full shadow at epoch
Visualization orbit readout
Latitude
Unknown
Longitude
Unknown
Altitude
Unknown
Speed
Unknown
Apparent Right ascension
Unknown
Apparent Declination
Unknown
Sunlit
N/A
Visualization observer readout
Local Sidereal Time
17:37:42
Azimuth
Unknown
Elevation
Unknown
Doppler factor
Unknown
Orbital elements
Apogee altitude
433.224 km
Perigee altitude
422.73 km
Semi-major axis
6,806.114 km
Eccentricity
0.00077
Inclination
97.4002°
RAAN
69.6873°
Arg. of periapsis
88.7727°
True anomaly
271.35209°
Mean anomaly
271.4404°
Eccentric anomaly
271.39624°
Mean motion
3.8654 °/min
Orbital period
93.13 mins
BSTAR
0.00058147
Loading maneuver chart data...
Computing Atmospheric mass density...
Loading historical data...
Loading historical data...
Loading historical data...
Loading historical data...
Loading historical data...
Loading historical data...
Loading historical data...

Documentation

Showing up to 5 results
|